Погода в Филоновской

Россия / Волгоградская область     50°34′54″N   42°43′51″E
темп.,
°C
ветер,
м/с
пор.,
м/с
влажн.,
%
обл.,
%
осадки,
мм/ч
давл.,
гПа
погр.,
м
21 апреля, ср
ср2100:00+13ю814840 3.8 1007650
03:00+10ююв614931 4.0 1008406
06:00+10ю81387100 0.3 1009749
09:00+10ю91383100 0.4 10111035
12:00+12юз9127882 0.2 10131181
15:00+13зюз796279 0.3 10151237
18:00+12юз247185 0.1 1016259
21:00+9ю338296 0.4 101829
22 апреля, чт
чт2200:00+8ююз358458 0.3 101965
03:00+9юз337775 0.3 101950
06:00+8ю338276 0.0 102164
09:00+13зюз34657 0.0 1021531
12:00+16зюз344691 0.4 10212011
15:00+16з3451100 0.4 1021815
18:00+15ююз1158100 0.1 102212
21:00+13ююв225896 0.1 102226
23 апреля, пт
пт2300:00+12ююв2262100 0.0 102216
03:00+10ююв116985 0.0 102210
06:00+11юв2270100 0.1 102235
09:00+14ююз2260100 0.6 1022260
12:00+16ю3349100 0.9 10201574
15:00+16ююв345294 1.2 10191359
18:00+13в236956 0.8 101995
21:00+10юв498398 2.1 1018248
24 апреля, сб
сб2400:00+9ю37865 0.1 1017123
03:00+9ююз358597 0.1 101579
06:00+10ююз3779100 0.0 1014166
09:00+13юз585996 0.2 1013706
12:00+16юз9124688 0.1 10112346
15:00+9з6118288 1.0 1013753
18:00+10з586490 0.2 10131175
21:00+7зюз36730 0.5 1014113
25 апреля, вс
вс2500:00+6юз477699 0.0 1014152
03:00+5зюз5888100 2.2 1015912
06:00+5зюз568397 1.3 1017595
09:00+8з57671 1.3 10171018
12:00+11з7945100 0.1 10172517
15:00+12з6935100 0.1 10172574
18:00+10з3546100 0.0 1018517
21:00+8юз3354100 0.0 101946